TimeEST,TemperatureF,Dew PointF,Humidity,Sea Level PressureIn,VisibilityMPH,Wind Direction,Wind SpeedMPH,Gust SpeedMPH,PrecipitationIn,Events,Conditions,WindDirDegrees,DateUTC
12:53 AM,66.0,60.1,81,30.03,10.0,Calm,Calm,-,N/A,,Clear,0,2014-01-27 05:53:00
1:53 AM,64.9,60.1,84,30.01,10.0,Calm,Calm,-,N/A,,Clear,0,2014-01-27 06:53:00
2:53 AM,63.0,59.0,87,30.00,9.0,Calm,Calm,-,N/A,,Scattered Clouds,0,2014-01-27 07:53:00
3:53 AM,61.0,57.0,87,30.00,9.0,Calm,Calm,-,N/A,,Clear,0,2014-01-27 08:53:00
4:53 AM,62.1,57.0,84,29.99,10.0,Calm,Calm,-,N/A,,Clear,0,2014-01-27 09:53:00
5:53 AM,60.1,55.9,86,30.01,9.0,Calm,Calm,-,N/A,,Clear,0,2014-01-27 10:53:00
6:53 AM,61.0,57.9,90,30.02,8.0,Calm,Calm,-,N/A,,Clear,0,2014-01-27 11:53:00
7:53 AM,63.0,60.1,90,30.03,7.0,Calm,Calm,-,N/A,,Clear,0,2014-01-27 12:53:00
8:53 AM,73.0,63.0,71,30.04,10.0,SW,5.8,-,N/A,,Clear,220,2014-01-27 13:53:00
9:53 AM,77.0,62.1,60,30.05,10.0,SSW,8.1,-,N/A,,Clear,200,2014-01-27 14:53:00
10:53 AM,80.1,62.1,54,30.04,10.0,South,8.1,-,N/A,,Clear,180,2014-01-27 15:53:00
11:53 AM,81.0,60.1,49,30.02,10.0,SW,6.9,-,N/A,,Clear,220,2014-01-27 16:53:00
12:53 PM,81.0,64.9,58,30.00,10.0,SSE,9.2,-,N/A,,Partly Cloudy,160,2014-01-27 17:53:00
1:53 PM,79.0,64.9,62,29.98,10.0,SSE,10.4,-,N/A,,Scattered Clouds,160,2014-01-27 18:53:00
2:53 PM,80.1,66.0,62,29.96,10.0,SSE,11.5,-,N/A,,Scattered Clouds,160,2014-01-27 19:53:00
3:53 PM,80.1,66.9,64,29.95,10.0,SSE,10.4,-,N/A,,Scattered Clouds,160,2014-01-27 20:53:00
4:53 PM,78.1,66.9,68,29.96,10.0,SSE,9.2,-,N/A,,Mostly Cloudy,150,2014-01-27 21:53:00
5:53 PM,75.9,66.9,74,29.97,10.0,South,5.8,-,N/A,,Partly Cloudy,180,2014-01-27 22:53:00
6:53 PM,75.0,68.0,79,29.99,10.0,South,3.5,-,N/A,,Scattered Clouds,170,2014-01-27 23:53:00
7:53 PM,73.9,66.9,79,30.01,10.0,South,4.6,-,N/A,,Clear,190,2014-01-28 00:53:00
8:53 PM,73.0,66.0,79,30.02,10.0,SW,3.5,-,N/A,,Clear,230,2014-01-28 01:53:00
9:53 PM,71.1,64.9,81,30.04,10.0,WNW,5.8,-,N/A,,Clear,290,2014-01-28 02:53:00
10:53 PM,70.0,63.0,78,30.05,10.0,West,4.6,-,N/A,,Clear,270,2014-01-28 03:53:00
11:53 PM,69.1,62.1,78,30.04,10.0,Calm,Calm,-,N/A,,Clear,0,2014-01-28 04:53:00